Airfield :
LOGIN :

Register | Disclaimer

   EN    FR    IT 

 










Legend :    VFR   Marginal VFR   IFR   Intensive IFR   Very Intensive IFR
Visi :
Ceiling :
>= 8 km
>= 3000ft
5 to 8 km
1000 to 3000 ft
1500m to 5 km
500 to 1000 ft
800 to 1500m
200 to 500 ft
< 800m
< 200 ft
Symbols :   Thunderstorms  Fog  Heavy snow  Heavy precipitations  Wind > 20 kt
SIGMETs :     Misc.  Thunderstorms  Icing  Turbulence  Mountain Waves  Volcanic Ashes






- Airport Elevation : 142 ft
- IATA code : FLR


LIRQ - Firenze Amerigo Vespucci

CURRENT METAR :
  • 190050Z VRB01KT 9999 SCT030 01/M01 Q1026

EXPIRED METARs :
  • 190020Z 24003KT 9999 SCT040 00/M01 Q1026
  • 182350Z VRB01KT 9999 SCT030 00/M01 Q1026
  • 182320Z VRB02KT 9999 SCT030 01/M01 Q1026
  • 182250Z VRB02KT CAVOK M00/M02 Q1026
  • 182220Z VRB01KT CAVOK M01/M02 Q1026

TAF TAF LIRQ
Valid from the 19 at 00:00 until the 20 at 00:00 UTC


182300Z 1900/1924 VRB05KT 9999 FEW020
TEMPO 1900/1906 4000 BR



MET'MAP, your aeronautical weather chart ! - Copyright ORBIFLY December 2007 - Disclaimer

ORBIFLY MET'MAP TEAM :

Programming & Development : Alexandra Zaïnal
Concept & original design : Baudouin d'Aumeries
Assistance for programming : Marc-Olivier Méhu
Technical & hardware support : Manuel Goepfert

Contact : metmap@orbifly.com




SOURCES & CREDITS :

   NOAA